Weather History for Kingston, Jamaica

Change the Weather History Date:

Monday, July 11, 2011

  Actual Average Record
Temperature  
Mean Temperature 86 °F -  
Max Temperature 92 °F 88 °F 93 °F (2006)
Min Temperature 80 °F 79 °F 74 °F (2013)
Cooling Degree Days 21    
Growing Degree Days 36 (Base 50)    
Moisture  
Dew Point 67 °F    
Average Humidity 57    
Maximum Humidity 66    
Minimum Humidity 41    
Precipitation  
Precipitation 0.00 in - - ()
Sea Level Pressure  
Sea Level Pressure 29.93 in    
Wind  
Wind Speed 13 mph ()    
Max Wind Speed 22 mph    
Max Gust Speed -    
Visibility 5.8 miles    
Events      
Averages and records for this station are not official NWS values.
T = Trace of Precipitation, MM = Missing Value Source: Averaged Metar Reports

Daily Weather History Graph

Daily Weather History Graph

Search for Another Location

Airport:

Trip Planner

Search our weather history database for the weather conditions in past years. The results will help you decide how hot, cold, wet, or windy it might be!

Date:

Astronomy

Jul. 11, 2011 Rise Set
Actual Time 5:38 AM EST 6:46 PM EST
Civil Twilight 5:14 AM EST 7:10 PM EST
Nautical Twilight 4:46 AM EST 7:38 PM EST
Astronomical Twilight 4:17 AM EST 8:07 PM EST
Moon 3:38 PM EST (7/11) 2:03 AM EST (7/11)
Length of Visible Light 13h 55m
Length of Day
13h 08m
Waxing Gibbous, 85% of the Moon is Illuminated
Jul 11
Waxing Gibbous
Jul 15
Full
Jul 23
Last Quarter
Jul 30
New
Aug 6
First Quarter

Hourly Weather History & Observations

Time (EST) Temp. Heat Index Dew Point Humidity Pressure Visibility Wind Dir Wind Speed Gust Speed Precip Events Conditions
12:00 AM 82.4 °F 84.6 °F 66.2 °F 58% 29.92 in 6.2 mi ESE 12.7 mph - N/A   Mostly Cloudy
1:00 AM 82.4 °F 85.4 °F 68.0 °F 62% 29.92 in 6.2 mi ESE 13.8 mph - N/A   Mostly Cloudy
2:00 AM 80.6 °F 83.2 °F 68.0 °F 65% 29.92 in 6.2 mi ESE 16.1 mph - N/A   Mostly Cloudy
3:00 AM 80.6 °F 83.2 °F 68.0 °F 65% 29.89 in 6.2 mi ESE 15.0 mph - N/A   Mostly Cloudy
4:00 AM 82.4 °F 84.6 °F 66.2 °F 58% 29.92 in 6.2 mi ESE 16.1 mph - N/A   Mostly Cloudy
5:00 AM 82.4 °F 85.4 °F 68.0 °F 62% 29.92 in 6.2 mi East 9.2 mph - N/A   Mostly Cloudy
6:00 AM 80.6 °F 82.3 °F 64.4 °F 58% 29.92 in 6.2 mi ENE 6.9 mph - N/A   Mostly Cloudy
7:00 AM 82 °F - 66 °F 50% 29.96 in 7 mi East 16.1 mph - -   Haze
7:00 AM 82.4 °F 84.6 °F 66.2 °F 58% 29.95 in 6.2 mi East 16.1 mph - N/A   Mostly Cloudy
8:00 AM 82.4 °F 83.9 °F 64.4 °F 54% 29.95 in 6.2 mi NE 5.8 mph - N/A   Mostly Cloudy
9:00 AM 84.2 °F 87.3 °F 68.0 °F 58% 29.95 in 6.2 mi ESE 17.3 mph - N/A   Mostly Cloudy
10:00 AM 86 °F - 67 °F 43% 29.96 in 4 mi ESE 19.6 mph - -   Haze
10:00 AM 86.0 °F 88.2 °F 66.2 °F 51% 29.95 in 6.2 mi ESE 19.6 mph - N/A   Mostly Cloudy
11:00 AM 86.0 °F 89.4 °F 68.0 °F 55% 29.95 in 6.2 mi ESE 18.4 mph - N/A   Mostly Cloudy
12:00 PM 87.8 °F 91.4 °F 68.0 °F 52% 29.95 in 6.2 mi ESE 18.4 mph - N/A   Mostly Cloudy
1:00 PM 88 °F - 67 °F 41% 29.94 in 4 mi ESE 12.7 mph - -   Haze
1:00 PM 87.8 °F 91.4 °F 68.0 °F 52% 29.92 in 6.2 mi ESE 20.7 mph - N/A   Mostly Cloudy
2:00 PM 86.0 °F 90.4 °F 69.8 °F 58% 29.92 in 6.2 mi SE 21.9 mph - N/A   Scattered Clouds
3:00 PM 86.0 °F 90.4 °F 69.8 °F 58% 29.92 in 6.2 mi SE 21.9 mph - N/A   Scattered Clouds
4:00 PM 85 °F - 71 °F 54% 29.90 in 4 mi SE 21.9 mph - -   Haze
4:00 PM 84.2 °F 89.6 °F 71.6 °F 66% 29.89 in 6.2 mi SE 21.9 mph - N/A   Scattered Clouds
5:00 PM 84.2 °F 88.4 °F 69.8 °F 62% 29.89 in 6.2 mi ESE 21.9 mph - N/A   Scattered Clouds
6:00 PM 84.2 °F 87.3 °F 68.0 °F 58% 29.89 in 6.2 mi ESE 19.6 mph - N/A   Mostly Cloudy
7:00 PM 83 °F - 67 °F 50% 29.94 in 4 mi ESE 17.3 mph - -   Haze
7:00 PM 82.4 °F 85.4 °F 68.0 °F 62% 29.92 in 6.2 mi ESE 17.3 mph - N/A   Mostly Cloudy
8:00 PM 82.4 °F 84.6 °F 66.2 °F 58% 29.95 in 6.2 mi ESE 15.0 mph - N/A   Scattered Clouds
9:00 PM 80.6 °F 82.7 °F 66.2 °F 61% 29.95 in 6.2 mi ESE 9.2 mph - N/A   Scattered Clouds
10:00 PM 81 °F - 66 °F 50% 29.98 in 4 mi NNE 3.5 mph - -   Haze
10:00 PM 80.6 °F 82.7 °F 66.2 °F 61% 29.98 in 6.2 mi NNE 3.5 mph - N/A   Scattered Clouds
11:00 PM - - - N/A% - - North - - N/A   Unknown